EDT,Max TemperatureF,Mean TemperatureF,Min TemperatureF,Max Dew PointF,MeanDew PointF,Min DewpointF,Max Humidity, Mean Humidity, Min Humidity, Max Sea Level PressureIn, Mean Sea Level PressureIn, Min Sea Level PressureIn, Max VisibilityMiles, Mean VisibilityMiles, Min VisibilityMiles, Max Wind SpeedMPH, Mean Wind SpeedMPH, Max Gust SpeedMPH,PrecipitationIn, CloudCover, Events, WindDirDegrees
2008-10-1,66,55,44,57,47,39,100,72,43,29.90,29.82,29.76,10,10,8,22,9,28,0.00,1,,343
2008-10-2,64,52,40,44,40,37,93,68,43,29.99,29.93,29.88,10,10,10,16,5,21,0.00,1,,342
2008-10-3,70,54,37,49,42,36,100,67,33,30.14,30.05,29.99,10,10,8,12,1,14,0.00,0,,334
2008-10-4,74,57,40,53,46,39,100,69,37,30.24,30.19,30.14,10,10,5,9,1,12,0.00,0,,292
2008-10-5,76,61,45,55,49,43,100,66,31,30.35,30.28,30.20,10,4,0,12,1,15,0.00,2,Fog,205
2008-10-6,77,62,46,54,49,46,100,69,38,30.35,30.29,30.21,10,4,0,12,2,14,0.00,1,Fog,203
2008-10-7,63,55,46,57,51,46,100,86,72,30.38,30.31,30.20,7,4,1,14,5,18,0.00,5,,160
2008-10-8,59,58,56,58,56,54,100,93,86,30.23,30.09,29.99,10,5,1,12,5,15,0.55,8,Rain,159
2008-10-9,73,65,57,61,58,57,100,83,66,30.09,30.03,29.97,10,9,2,10,2,14,0.00,6,,345
2008-10-10,70,63,55,63,59,55,100,87,73,30.27,30.16,30.06,10,10,2,9,3,12,T,7,,21
2008-10-11,73,67,61,58,55,48,84,70,56,30.39,30.29,30.22,10,10,7,10,4,15,T,7,Rain,15
2008-10-12,72,64,55,49,44,37,72,53,33,30.45,30.40,30.34,10,10,10,14,3,21,T,5,Rain,71
2008-10-13,73,62,51,55,52,48,100,71,41,30.48,30.41,30.33,10,10,10,12,3,14,0.00,3,,186
2008-10-14,79,61,42,55,48,39,100,63,25,30.40,30.32,30.20,10,8,0,10,3,14,0.00,1,Fog,342
2008-10-15,81,64,47,55,50,39,96,61,25,30.27,30.19,30.11,10,10,10,10,1,12,0.00,0,,170
2008-10-16,78,64,49,60,55,49,96,72,48,30.15,30.11,30.06,10,10,2,14,4,20,0.00,1,,333
2008-10-17,65,60,54,62,58,49,100,92,83,30.09,30.03,29.97,10,8,2,20,8,25,0.23,8,Rain,341
2008-10-18,55,49,43,47,40,35,93,72,51,30.23,30.10,30.00,10,10,9,24,11,31,0.00,4,,344
2008-10-19,63,49,34,38,34,30,92,61,30,30.33,30.28,30.22,10,10,10,9,3,13,0.00,0,,339
2008-10-20,66,48,30,40,35,30,100,69,37,30.40,30.32,30.21,10,6,0,10,2,15,0.00,1,Fog,325
2008-10-21,66,53,39,47,42,38,92,70,48,30.22,30.19,30.15,10,10,10,22,8,25,0.00,1,,339
2008-10-22,64,50,35,41,36,34,92,64,36,30.42,30.28,30.21,10,10,9,14,3,18,0.00,0,,18
2008-10-23,53,43,33,36,34,32,96,72,48,30.53,30.46,30.41,10,10,10,14,5,18,0.00,0,,155
2008-10-24,51,48,44,50,46,33,100,80,60,30.43,30.17,30.02,10,5,1,12,5,16,0.94,8,Rain,185
2008-10-25,58,50,42,52,49,40,100,78,55,30.02,29.96,29.91,10,7,2,25,9,30,0.12,6,Rain,342
2008-10-26,66,53,39,43,39,37,96,67,37,30.09,30.02,29.97,10,10,10,21,6,26,0.00,0,,347
2008-10-27,49,43,36,42,27,9,100,61,21,30.14,30.04,29.96,10,8,1,32,16,38,T,2,,340
2008-10-28,44,39,33,30,26,20,75,59,43,30.22,30.16,30.09,10,8,1,33,18,43,T,5,Snow,335
2008-10-29,55,44,33,24,21,18,61,45,28,30.25,30.17,30.09,10,10,10,26,11,32,0.00,0,,339
2008-10-30,63,46,28,31,24,10,85,49,13,30.56,30.44,30.27,10,10,10,15,4,18,0.00,0,,335
2008-10-31,68,48,27,35,29,22,92,55,18,30.63,30.53,30.43,10,10,10,14,3,17,0.00,0,,335